Regional Weather Roundup
Issued by NWS

Home | Current Version | Previous Version | Text Only | Print | Product List | Glossary Off
Versions: 1 2 3 4 5 6 7 8 9 10 11 12 13 14 15 16 17 18 19 20 21 22 23 24 25 26 27 28 29 30 31 32 33 34 35 36 37 38 39 40 41 42 43 44 45 46 47 48 49 50

533
ASUS43 KLOT 250804
RWRIL

ILLINOIS REGIONAL WEATHER ROUNDUP
NATIONAL WEATHER SERVICE CHICAGO/ROMEOVILLE IL
300 AM CDT THU AUG 25 2016

NOTE: "FAIR" INDICATES FEW OR NO CLOUDS BELOW 12,000 FEET WITH NO
SIGNIFICANT WEATHER AND/OR OBSTRUCTIONS TO VISIBILITY.

* THESE STATIONS ARE NOT UNDER NWS QUALITY CONTROL. THEY ALSO MAY NOT
  REPORT WEATHER SUCH AS PRECIPITATION OR FOG.

ILZ001-002-007-009-015-016-024-250900-
NORTHWEST ILLINOIS

CITY           SKY/WX    TMP DP  RH WIND       PRES   REMARKS
MOLINE         LGT RAIN  71  69  93 CALM      30.00F
STERLING*      LGT RAIN  70  69  97 SW3       29.99F
SAVANNA*       CLOUDY    74  73  96 CALM      29.98S
$$

ILZ003-004-008-010-011-017-018-250900-
NORTH CENTRAL ILLINOIS

CITY           SKY/WX    TMP DP  RH WIND       PRES   REMARKS
ROCKFORD       CLOUDY    73  71  93 SW6       29.98S
FREEPORT*      CLOUDY    71  71  98 SW6       29.99F
ROCHELLE*      CLOUDY    70  70  99 SW7       30.00F
$$

ILZ005-006-012>014-019>023-250900-
NORTHEAST ILLINOIS

CITY           SKY/WX    TMP DP  RH WIND       PRES   REMARKS
CHICAGO-OHARE  CLOUDY    73  71  93 SW7       29.96F
CHICAGO-MIDWAY LGT RAIN  75  71  87 SW7       29.97F
AURORA         CLOUDY    72  69  90 SW7       29.98S
LANSING*       CLOUDY    70  67  90 S7        29.98F
JOLIET*        LGT RAIN  73  72  98 CALM      29.98S
WAUKEGAN       CLOUDY    75  71  87 CALM      29.95R
DUPAGE AIRPORT CLOUDY    73  70  90 SW8       29.97S
KANKAKEE*      TSTM      71  70  95 W6        30.04R
WHEELING       CLOUDY    74  71  91 SW5       29.96F
MORRIS*        RAIN      71  70  97 SW3       29.98S
ROMEOVILLE*    LGT RAIN  70  68  92 SW3       29.99S
NORTHERLY ISL    N/A     75  70  84 S5          N/A
$$

LMZ740>746-250900-
SOUTHERN LAKE MICHIGAN

STATION/POSITION SKY/WX   TEMP    WIND        PRES    VSBY  WAVE
                          AIR SEA DIR/SP/G                  HT/PER
                          (F)     (DEG/KT/KT) (MB)    (MI)  (FT/S)
SOUTHERN BUOY              76 75  220/ 12/ 14 1013.0          1/ 2
WILMETTE HARBOR            73 70  240/ 10/ 12   N/A           1
HARRISON CRIB              77     230/ 11/ 14   N/A
BURNHAM HARBOR             74     210/  5/  7   N/A
CALUMET HARBOR             73     180/  5/  8 1014.6F
BURNS HARBOR               76     220/  9/ 15 1016.3R
MICHIGAN CITY              75     190/ 11/ 12   N/A
MICHIGAN CITY 6N           75 74  230/ 10/ 12   N/A           1/ 2
ST. JOSEPH                 76 74  220/ 10/ 14 1014.5R         2/ 3
$$

ILZ025>027-034>036-040-047-049-050-058-095>099-250900-
WEST-CENTRAL ILLINOIS

CITY           SKY/WX    TMP DP  RH WIND       PRES   REMARKS
QUINCY         CLOUDY    70  70 100 S3        30.00F
GALESBURG*     RAIN      73  72  98 SW3       30.01F
MACOMB*        LGT RAIN  71  71  99 CALM      30.03F
JACKSONVILLE*  CLOUDY    69  67  96 SE5       30.04F
PITTSFIELD*    CLOUDY    68  68  99 S3        30.04F
$$

ILZ028>032-037-038-041>044-048-051>054-059>061-250900-
CENTRAL ILLINOIS

CITY           SKY/WX    TMP DP  RH WIND       PRES   REMARKS
PONTIAC        LGT RAIN  73  71  96 SW6       30.05R
BLOOMINGTON    TSTM      70  68  93 SW9       30.08R
DECATUR        LGT RAIN  71  67  87 NW14G24   30.07R
PEORIA         TSTM      71  71 100 NE3       30.01R
LACON*         TSTM      72  70  95 SW8       30.03R
LINCOLN*       CLOUDY    70  69  99 CALM      30.05F
SPRINGFIELD    CLOUDY    70  68  93 CALM      30.06F
TAYLORVILLE    LGT RAIN  71  68  90 NW8       30.07R
$$

ILZ033-039-045-046-055>057-062-063-250900-
EAST-CENTRAL ILLINOIS

CITY           SKY/WX    TMP DP  RH WIND       PRES   REMARKS
CHAMPAIGN      CLOUDY    77  74  90 SW10      30.03R
RANTOUL*       CLOUDY    77  76  97 SW6       30.02R
MATTOON        PTCLDY    77  74  90 SW8       30.04R
PARIS*         CLOUDY    75  74  98 SW3       30.04S
$$

ILZ079-100>102-250900-
SOUTHWEST ILLINOIS

CITY           SKY/WX    TMP DP  RH WIND       PRES   REMARKS
ALTON          PTCLDY    78  73  85 W10       30.05R HX  80
BELLEVILLE     CLEAR     77  75  93 S5        30.04R
CAHOKIA*       CLEAR     76  71  85 CALM      30.04R
SPARTA*        CLEAR     76  74  92 SW5       30.06S
$$

ILZ064>066-069>071-074>076-080>082-084>086-088>090-092>094-250900-
SOUTH-CENTRAL ILLINOIS

CITY           SKY/WX    TMP DP  RH WIND       PRES   REMARKS
CARBONDALE     CLEAR     73  71  93 CALM      30.07R
EFFINGHAM*     CLEAR     76  76 100 S3        30.06S
MARION         CLEAR     75  73  94 CALM      30.08R
MT. VERNON     CLEAR     75  70  83 SW5       30.07R
CENTRALIA*     CLEAR     74  74 100 S3        30.05S FOG
SALEM*         CLEAR     77  74  91 SW5       30.06R
$$

ILZ067-068-072-073-078-083-087-091-250900-
SOUTHEAST ILLINOIS

CITY           SKY/WX    TMP DP  RH WIND       PRES   REMARKS
LAWRENCEVILLE  CLEAR     77  75  93 SW7       30.06R
FLORA*         CLEAR     74  73  96 SW3       30.06R
FAIRFIELD*     CLEAR     75  74  99 CALM      30.06R
HARRISBURG*    CLEAR     75  74  97 CALM      30.07R
ROBINSON*      CLEAR     76  75  94 SW9       30.06R
CARMI*         CLEAR     74  73  99 S5        30.06S
$$

ABBREVIATIONS USED IN REMARKS
   TC - TEMPERATURE IN CELSIUS
  WCI - WIND CHILL INDEX
   HX - HEAT INDEX
  VSB - VISIBILITY
$$





USA.gov is the U.S. government's official web portal to all federal, state and local government web resources and services.